Location: El Limón
(10.3059°N, 67.6321°W)
Time: 14:19:26
(UTC+00:00)

Cosmos 1470 Rocket - Pass Details

Date: 14 April 2024
Orbit: 601 x 629 km, 82.5° (Epoch: 28 May)

Event Time Altitude Azimuth Distance (km) Brightness Sun altitude
Rises 09:34:07 0° 339° (NNW) 2,887 6.9 -12.0°
Reaches altitude 10° 09:36:32 10° 328° (NNW) 1,986 6.0 -11.4°
Maximum altitude 09:40:22 29° 268° (W) 1,138 4.4 -10.5°
Drops below altitude 10° 09:44:13 10° 207° (SSW) 1,997 5.8 -9.5°
Sets 09:46:40 0° 196° (SSW) 2,906 6.7 -8.9°
